When you browse on this site, cookies collect data to enhance your experience and personalize the content and advertising you see.
Visit our Privacy Policy to learn more. By continuing to use the site, you agree to this use of cookies and data.
  • In Latvia
  • List of Countries
  • For 7 days
  • Water Temperature
  • Weather Map
  • Weather Widgets
  • user-avatar
    Login

    Hourly Weather Baku

    Today, 7 December, Saturday

    Time Temperature Precipitation Wind Pressure Humidity
    00:00 +8°C° 0 mm 4 mps 771 mmHg 71%
    01:00 +8°C° 0 mm 4 mps 771 mmHg 71%
    02:00 +8°C° 0 mm 4 mps 770 mmHg 72%
    03:00 +9°C° 0 mm 3 mps 770 mmHg 74%
    04:00 +9°C° 0 mm 3 mps 770 mmHg 75%
    05:00 +9°C° 0 mm 3 mps 770 mmHg 75%
    06:00 +9°C° 0 mm 3 mps 770 mmHg 76%
    07:00 +9°C° 0 mm 3 mps 770 mmHg 74%
    08:00 +10°C° 0 mm 3 mps 770 mmHg 72%
    09:00 +10°C° 0 mm 3 mps 770 mmHg 71%
    10:00 +11°C° 0 mm 4 mps 770 mmHg 70%
    11:00 +11°C° 0 mm 4 mps 769 mmHg 68%
    12:00 +11°C° 0 mm 4 mps 769 mmHg 67%
    13:00 +11°C° 0 mm 4 mps 768 mmHg 67%
    14:00 +10°C° 0 mm 5 mps 768 mmHg 68%
    15:00 +10°C° 0 mm 5 mps 767 mmHg 68%
    16:00 +11°C° 0 mm 4 mps 767 mmHg 70%
    17:00 +10°C° 0 mm 4 mps 767 mmHg 72%
    18:00 +10°C° 0 mm 4 mps 767 mmHg 73%
    19:00 +10°C° 0 mm 4 mps 767 mmHg 74%
    20:00 +10°C° 0 mm 4 mps 766 mmHg 75%
    21:00 +10°C° 0 mm 4 mps 766 mmHg 76%
    22:00 +8°C° 0 mm 4 mps 766 mmHg 77%
    23:00 +9°C° 0 mm 3 mps 765 mmHg 77%

    Tomorrow, 8 December, Sunday

    Time Temperature Precipitation Wind Pressure Humidity
    00:00 +9°C° 0 mm 3 mps 765 mmHg 78%
    01:00 +9°C° 0 mm 3 mps 764 mmHg 78%
    02:00 +9°C° 0 mm 3 mps 764 mmHg 78%
    03:00 +9°C° 0 mm 3 mps 763 mmHg 78%
    04:00 +9°C° 0 mm 3 mps 763 mmHg 78%
    05:00 +8°C° 0 mm 4 mps 763 mmHg 77%
    06:00 +8°C° 0 mm 4 mps 762 mmHg 77%
    07:00 +8°C° 0 mm 4 mps 762 mmHg 75%
    08:00 +8°C° 0 mm 4 mps 762 mmHg 73%
    09:00 +10°C° 0 mm 4 mps 762 mmHg 71%
    10:00 +10°C° 0 mm 4 mps 761 mmHg 68%
    11:00 +11°C° 0 mm 4 mps 760 mmHg 66%
    12:00 +11°C° 0 mm 4 mps 760 mmHg 63%
    13:00 +11°C° 0 mm 4 mps 759 mmHg 64%
    14:00 +11°C° 0 mm 4 mps 759 mmHg 64%
    15:00 +11°C° 0 mm 4 mps 759 mmHg 64%
    16:00 +11°C° 0 mm 4 mps 759 mmHg 66%
    17:00 +10°C° 0 mm 3 mps 759 mmHg 67%
    18:00 +10°C° 0 mm 3 mps 759 mmHg 69%
    19:00 +10°C° 0 mm 3 mps 759 mmHg 68%
    20:00 +10°C° 0 mm 2 mps 759 mmHg 68%
    21:00 +10°C° 0 mm 2 mps 759 mmHg 67%
    22:00 +10°C° 0 mm 4 mps 759 mmHg 71%
    23:00 +9°C° 0 mm 5 mps 759 mmHg 75%

    Day after tomorrow, 9 December, Monday

    Time Temperature Precipitation Wind Pressure Humidity
    00:00 +9°C° 0 mm 7 mps 759 mmHg 79%
    01:00 +8°C° 0.7 mm 6 mps 759 mmHg 82%
    02:00 +8°C° 0.7 mm 6 mps 759 mmHg 85%
    03:00 +8°C° 0.7 mm 6 mps 759 mmHg 88%
    04:00 +8°C° 1 mm 7 mps 759 mmHg 87%
    05:00 +7°C° 1 mm 8 mps 760 mmHg 85%
    06:00 +7°C° 1 mm 9 mps 760 mmHg 84%
    07:00 +7°C° 0.7 mm 10 mps 760 mmHg 79%
    08:00 +6°C° 0.7 mm 11 mps 761 mmHg 74%
    09:00 +5°C° 0.7 mm 12 mps 761 mmHg 69%
    10:00 +6°C° 0.2 mm 11 mps 761 mmHg 69%
    11:00 +7°C° 0.2 mm 11 mps 761 mmHg 68%
    12:00 +7°C° 0.2 mm 11 mps 761 mmHg 68%
    13:00 +7°C° 0.1 mm 11 mps 761 mmHg 69%
    14:00 +7°C° 0.1 mm 11 mps 762 mmHg 70%
    15:00 +7°C° 0.1 mm 10 mps 762 mmHg 72%
    16:00 +7°C° 0.1 mm 10 mps 762 mmHg 72%
    17:00 +7°C° 0.1 mm 10 mps 762 mmHg 72%
    18:00 +7°C° 0.1 mm 10 mps 763 mmHg 72%
    19:00 +7°C° 0.1 mm 10 mps 763 mmHg 73%
    20:00 +6°C° 0.1 mm 9 mps 763 mmHg 75%
    21:00 +6°C° 0.1 mm 9 mps 763 mmHg 76%
    22:00 +6°C° 0 mm 8 mps 763 mmHg 76%
    23:00 +6°C° 0 mm 8 mps 763 mmHg 76%

    10 December, Tuesday

    Time Temperature Precipitation Wind Pressure Humidity
    00:00 +6°C° 0 mm 7 mps 763 mmHg 76%
    01:00 +6°C° 0 mm 7 mps 763 mmHg 76%
    02:00 +7°C° 0 mm 6 mps 763 mmHg 75%
    03:00 +7°C° 0 mm 6 mps 763 mmHg 74%
    04:00 +7°C° 0 mm 6 mps 764 mmHg 74%
    05:00 +7°C° 0 mm 5 mps 764 mmHg 74%
    06:00 +7°C° 0 mm 5 mps 764 mmHg 73%
    07:00 +8°C° 0 mm 5 mps 764 mmHg 71%
    08:00 +8°C° 0 mm 5 mps 764 mmHg 69%
    09:00 +8°C° 0 mm 5 mps 765 mmHg 67%
    10:00 +9°C° 0 mm 5 mps 765 mmHg 65%
    11:00 +9°C° 0 mm 5 mps 764 mmHg 63%
    12:00 +9°C° 0 mm 5 mps 764 mmHg 62%
    13:00 +9°C° 0 mm 5 mps 764 mmHg 64%
    14:00 +10°C° 0 mm 4 mps 764 mmHg 66%
    15:00 +10°C° 0 mm 4 mps 764 mmHg 69%
    16:00 +8°C° 0 mm 4 mps 764 mmHg 71%
    17:00 +8°C° 0 mm 4 mps 764 mmHg 74%
    18:00 +9°C° 0 mm 3 mps 764 mmHg 77%
    19:00 +9°C° 0 mm 3 mps 764 mmHg 77%
    20:00 +8°C° 0 mm 3 mps 764 mmHg 78%
    21:00 +8°C° 0 mm 2 mps 764 mmHg 79%
    22:00 +8°C° 0 mm 2 mps 764 mmHg 79%
    23:00 +8°C° 0 mm 2 mps 764 mmHg 79%

    11 December, Wednesday

    Time Temperature Precipitation Wind Pressure Humidity
    00:00 +9°C° 0 mm 1 mps 764 mmHg 79%
    01:00 +9°C° 0 mm 1 mps 764 mmHg 80%
    02:00 +9°C° 0 mm 1 mps 763 mmHg 81%
    03:00 +7°C° 0 mm 0 mps 763 mmHg 82%
    04:00 +7°C° 0 mm 0 mps 763 mmHg 82%
    05:00 +7°C° 0 mm 0 mps 763 mmHg 82%
    06:00 +8°C° 0 mm 0 mps 763 mmHg 82%
    07:00 +8°C° 0 mm 0 mps 763 mmHg 80%
    08:00 +8°C° 0 mm 0 mps 763 mmHg 78%
    09:00 +9°C° 0 mm 0 mps 764 mmHg 77%
    10:00 +9°C° 0 mm 0 mps 763 mmHg 75%
    11:00 +9°C° 0 mm 0 mps 763 mmHg 74%
    12:00 +10°C° 0 mm 1 mps 763 mmHg 73%
    13:00 +10°C° 0 mm 1 mps 762 mmHg 73%
    14:00 +10°C° 0 mm 1 mps 762 mmHg 73%
    15:00 +11°C° 0 mm 1 mps 762 mmHg 73%
    16:00 +10°C° 0 mm 1 mps 762 mmHg 73%
    17:00 +9°C° 0 mm 2 mps 762 mmHg 74%
    18:00 +9°C° 0 mm 2 mps 763 mmHg 74%
    19:00 +9°C° 0 mm 2 mps 763 mmHg 75%
    20:00 +10°C° 0 mm 1 mps 763 mmHg 75%
    21:00 +10°C° 0 mm 1 mps 763 mmHg 76%
    22:00 +10°C° 0 mm 1 mps 762 mmHg 77%
    23:00 +10°C° 0 mm 1 mps 762 mmHg 78%

    12 December, Thursday

    Time Temperature Precipitation Wind Pressure Humidity
    00:00 +8°C° 0 mm 0 mps 762 mmHg 79%
    01:00 +8°C° 0 mm 0 mps 762 mmHg 81%
    02:00 +9°C° 0 mm 1 mps 761 mmHg 82%
    03:00 +8°C° 0 mm 1 mps 761 mmHg 83%
    04:00 +8°C° 0 mm 1 mps 761 mmHg 83%
    05:00 +8°C° 0 mm 1 mps 761 mmHg 83%
    06:00 +8°C° 0 mm 1 mps 761 mmHg 83%
    07:00 +8°C° 0 mm 2 mps 761 mmHg 81%
    08:00 +8°C° 0 mm 3 mps 761 mmHg 78%
    09:00 +9°C° 0 mm 3 mps 761 mmHg 76%
    10:00 +10°C° 0 mm 4 mps 760 mmHg 73%
    11:00 +10°C° 0 mm 4 mps 760 mmHg 69%
    12:00 +10°C° 0 mm 5 mps 759 mmHg 66%
    13:00 +10°C° 0 mm 5 mps 759 mmHg 65%
    14:00 +10°C° 0 mm 5 mps 759 mmHg 65%
    15:00 +10°C° 0 mm 5 mps 758 mmHg 64%
    16:00 +10°C° 0 mm 5 mps 758 mmHg 67%
    17:00 +9°C° 0 mm 5 mps 758 mmHg 70%
    18:00 +9°C° 0 mm 5 mps 758 mmHg 73%
    19:00 +9°C° 0 mm 5 mps 758 mmHg 74%
    20:00 +8°C° 0 mm 5 mps 758 mmHg 75%
    21:00 +8°C° 0 mm 4 mps 758 mmHg 76%
    22:00 +8°C° 0 mm 4 mps 758 mmHg 76%
    23:00 +9°C° 0 mm 3 mps 758 mmHg 76%
    Show more